Orr, MN

10:32 AM CDT on March 23, 2017 (GMT -0500)
Orr Regional

Weather History for KORB - March, 2012

Change the Weather History Date:

Tuesday, March 6, 2012

  Actual Average Record
Temperature  
Mean Temperature 36 °F -  
Max Temperature 51 °F 23 °F 53 °F (2005)
Min Temperature 21 °F 4 °F -18 °F (2008)
Degree Days  
Heating Degree Days 29    
Moisture  
Dew Point 23 °F    
Average Humidity 65    
Maximum Humidity 93    
Minimum Humidity 35    
Precipitation  
Precipitation 0.00 in - - ()
Sea Level Pressure  
Sea Level Pressure 29.58 in    
Wind  
Wind Speed 7 mph (SE)    
Max Wind Speed 14 mph    
Max Gust Speed 20 mph    
Visibility 10 miles    
Events      
Averages and records for this station are not official NWS values.
T = Trace of Precipitation, MM = Missing Value Source: NWS Daily Summary

Daily Weather History Graph

Daily Weather History Graph

Search for Another Location

Airport or City:

Trip Planner

Search our weather history database for the weather conditions in past years. The results will help you decide how hot, cold, wet, or windy it might be!

Date:

Astronomy

Mar. 06, 2012 Rise Set
Actual Time 6:41 AM CST 6:04 PM CST
Civil Twilight 6:10 AM CST 6:35 PM CST
Nautical Twilight 5:34 AM CST 7:11 PM CST
Astronomical Twilight 4:58 AM CST 7:47 PM CST
Moon 4:27 PM CST (3/6) 5:23 AM CST (3/6)
Length of Visible Light 12h 24m
Length of Day
11h 22m
Waxing Gibbous, 96% of the Moon is Illuminated
Mar 6
Waxing Gibbous
Mar 8
Full
Mar 14
Last Quarter
Mar 22
New
Mar 30
First Quarter

Hourly Weather History & Observations

Time (CST) Temp. Windchill Dew Point Humidity Pressure Visibility Wind Dir Wind Speed Gust Speed Precip Events Conditions
12:15 AM 26.6 °F 18.2 °F 19.4 °F 74% 29.75 in 10.0 mi SE 8.1 mph - N/A   Overcast
12:34 AM 26.6 °F 20.0 °F 19.4 °F 74% 29.74 in 10.0 mi SE 5.8 mph - N/A   Overcast
12:55 AM 26.6 °F 19.1 °F 19.4 °F 74% 29.74 in 10.0 mi SE 6.9 mph - N/A   Overcast
1:14 AM 26.6 °F 21.2 °F 19.4 °F 74% 29.74 in 10.0 mi SE 4.6 mph - N/A   Overcast
1:34 AM 26.6 °F 19.1 °F 19.4 °F 74% 29.74 in 10.0 mi SSE 6.9 mph - N/A   Overcast
1:54 AM 26.6 °F 19.1 °F 19.4 °F 74% 29.73 in 10.0 mi SE 6.9 mph - N/A   Overcast
2:14 AM 26.6 °F 20.0 °F 21.2 °F 80% 29.73 in 10.0 mi SSE 5.8 mph - N/A   Overcast
2:35 AM 26.6 °F 21.2 °F 19.4 °F 74% 29.71 in 10.0 mi SSE 4.6 mph - N/A   Mostly Cloudy
2:54 AM 26.6 °F 20.0 °F 19.4 °F 74% 29.71 in 10.0 mi SE 5.8 mph - N/A   Overcast
3:14 AM 26.6 °F 20.0 °F 19.4 °F 74% 29.70 in 10.0 mi SE 5.8 mph - N/A   Overcast
3:35 AM 24.8 °F 17.9 °F 19.4 °F 80% 29.69 in 10.0 mi SE 5.8 mph - N/A   Mostly Cloudy
3:54 AM 24.8 °F 17.9 °F 19.4 °F 80% 29.69 in 10.0 mi SE 5.8 mph - N/A   Scattered Clouds
4:14 AM 24.8 °F 19.1 °F 19.4 °F 80% 29.68 in 10.0 mi SE 4.6 mph - N/A   Clear
4:34 AM 24.8 °F 19.1 °F 19.4 °F 80% 29.67 in 10.0 mi ESE 4.6 mph - N/A   Clear
4:54 AM 23.0 °F 17.0 °F 19.4 °F 86% 29.66 in 10.0 mi ESE 4.6 mph - N/A   Clear
5:15 AM 23.0 °F 17.0 °F 19.4 °F 86% 29.66 in 10.0 mi ESE 4.6 mph - N/A   Clear
5:34 AM 21.2 °F 14.9 °F 19.4 °F 93% 29.65 in 10.0 mi ESE 4.6 mph - N/A   Clear
5:54 AM 21.2 °F 13.6 °F 19.4 °F 93% 29.64 in 10.0 mi SE 5.8 mph - N/A   Clear
6:34 AM 21.2 °F 14.9 °F 19.4 °F 93% 29.63 in 10.0 mi SE 4.6 mph - N/A   Clear
6:54 AM 21.2 °F 14.9 °F 19.4 °F 93% 29.62 in 7.0 mi ESE 4.6 mph - N/A   Clear
7:14 AM 21.2 °F 13.6 °F 19.4 °F 93% 29.62 in 7.0 mi ESE 5.8 mph - N/A   Clear
7:34 AM 23.0 °F 15.8 °F 19.4 °F 86% 29.62 in 10.0 mi SE 5.8 mph - N/A   Clear
7:54 AM 24.8 °F 16.9 °F 19.4 °F 80% 29.61 in 10.0 mi SE 6.9 mph - N/A   Clear
8:14 AM 26.6 °F 18.2 °F 21.2 °F 80% 29.60 in 10.0 mi SE 8.1 mph - N/A   Clear
8:54 AM 30.2 °F 21.3 °F 21.2 °F 69% 29.59 in 10.0 mi SSE 10.4 mph - N/A   Clear
9:14 AM 32.0 °F 23.0 °F 21.2 °F 64% 29.58 in 10.0 mi SSE 11.5 mph 17.3 mph N/A   Clear
9:34 AM 33.8 °F 25.8 °F 21.2 °F 60% 29.58 in 10.0 mi SSE 10.4 mph 16.1 mph N/A   Clear
9:54 AM 35.6 °F 28.0 °F 21.2 °F 56% 29.57 in 10.0 mi SSE 10.4 mph 17.3 mph N/A   Clear
10:14 AM 37.4 °F 28.9 °F 21.2 °F 52% 29.57 in 10.0 mi SSE 13.8 mph 19.6 mph N/A   Clear
10:34 AM 37.4 °F 29.8 °F 21.2 °F 52% 29.56 in 10.0 mi SE 11.5 mph - N/A   Clear
10:55 AM 39.2 °F 32.0 °F 21.2 °F 49% 29.57 in 10.0 mi SSE 11.5 mph 17.3 mph N/A   Clear
11:14 AM 39.2 °F 31.6 °F 21.2 °F 49% 29.56 in 10.0 mi SSE 12.7 mph 18.4 mph N/A   Clear
11:34 AM 41.0 °F 35.2 °F 23.0 °F 49% 29.55 in 10.0 mi SSE 9.2 mph 16.1 mph N/A   Clear
11:54 AM 42.8 °F 37.5 °F 23.0 °F 46% 29.54 in 10.0 mi South 9.2 mph - N/A   Clear
12:14 PM 44.6 °F 38.8 °F 23.0 °F 43% 29.52 in 10.0 mi SSE 11.5 mph 18.4 mph N/A   Clear
12:54 PM 46.4 °F 41.9 °F 23.0 °F 40% 29.50 in 10.0 mi SSE 9.2 mph - N/A   Clear
1:35 PM 48.2 °F - 24.8 °F 40% 29.47 in 10.0 mi SSE 11.5 mph - N/A   Clear
1:54 PM 48.2 °F - 24.8 °F 40% 29.47 in 10.0 mi SSE 10.4 mph 19.6 mph N/A   Clear
2:14 PM 51.8 °F - 24.8 °F 35% 29.46 in 10.0 mi SSE 10.4 mph - N/A   Clear
2:35 PM 50.0 °F - 24.8 °F 37% 29.47 in 10.0 mi SSE 11.5 mph 16.1 mph N/A   Clear
2:54 PM 50.0 °F - 24.8 °F 37% 29.45 in 10.0 mi SSE 8.1 mph 19.6 mph N/A   Clear
3:15 PM 50.0 °F - 24.8 °F 37% 29.46 in 10.0 mi SSE 12.7 mph 16.1 mph N/A   Clear
3:34 PM 48.2 °F - 24.8 °F 40% 29.47 in 10.0 mi SSE 12.7 mph 19.6 mph N/A   Clear
3:54 PM 46.4 °F 40.4 °F 24.8 °F 43% 29.47 in 10.0 mi SSE 13.8 mph - N/A   Clear
4:14 PM 46.4 °F 41.1 °F 24.8 °F 43% 29.47 in 10.0 mi SSE 11.5 mph 17.3 mph N/A   Clear
4:35 PM 44.6 °F 38.8 °F 24.8 °F 46% 29.48 in 10.0 mi SSE 11.5 mph 18.4 mph N/A   Clear
4:54 PM 44.6 °F 40.2 °F 24.8 °F 46% 29.48 in 10.0 mi SSE 8.1 mph - N/A   Clear
5:14 PM 42.8 °F 37.0 °F 24.8 °F 49% 29.49 in 10.0 mi SSE 10.4 mph - N/A   Clear
5:34 PM 42.8 °F 37.0 °F 24.8 °F 49% 29.50 in 10.0 mi SSE 10.4 mph - N/A   Clear
5:54 PM 41.0 °F 36.4 °F 24.8 °F 53% 29.50 in 10.0 mi SE 6.9 mph - N/A   Clear
6:54 PM 37.4 °F 32.8 °F 26.6 °F 65% 29.51 in 10.0 mi SE 5.8 mph - N/A   Clear
7:34 PM 37.4 °F 32.1 °F 26.6 °F 65% 29.50 in 10.0 mi SE 6.9 mph - N/A   Clear
7:54 PM 37.4 °F 32.1 °F 26.6 °F 65% 29.50 in 10.0 mi SE 6.9 mph - N/A   Clear
8:14 PM 37.4 °F 32.8 °F 26.6 °F 65% 29.51 in 10.0 mi SSE 5.8 mph - N/A   Clear
8:34 PM 37.4 °F 33.8 °F 26.6 °F 65% 29.51 in 10.0 mi SE 4.6 mph - N/A   Clear
9:14 PM 35.6 °F 31.7 °F 26.6 °F 70% 29.50 in 10.0 mi SE 4.6 mph - N/A   Clear
9:54 PM 35.6 °F - 26.6 °F 70% 29.51 in 10.0 mi Calm Calm - N/A   Clear
10:14 PM 33.8 °F 30.8 °F 26.6 °F 75% 29.54 in 10.0 mi WSW 3.5 mph - N/A   Clear
10:34 PM 33.8 °F - 26.6 °F 75% 29.55 in 10.0 mi Calm Calm - N/A   Clear
10:55 PM 33.8 °F - 26.6 °F 75% 29.55 in 10.0 mi Calm Calm - N/A   Clear
11:14 PM 33.8 °F - 26.6 °F 75% 29.54 in 10.0 mi Calm Calm - N/A   Clear
11:34 PM 33.8 °F - 26.6 °F 75% 29.53 in 10.0 mi Calm Calm - N/A   Clear
11:54 PM 33.8 °F - 26.6 °F 75% 29.53 in 10.0 mi Calm Calm - N/A   Clear